Williston, ND

4:37 PM CST on February 26, 2017 (GMT -0600)
Sloulin International

Weather History for KISN - January, 2012

Change the Weather History Date:

Tuesday, January 17, 2012

  Actual Average Record
Temperature  
Mean Temperature -4 °F 11 °F  
Max Temperature 2 °F 22 °F 49 °F (1923)
Min Temperature -11 °F 0 °F -35 °F (1943)
Degree Days  
Heating Degree Days 69 54  
Month to date heating degree days 712 928  
Since 1 July heating degree days 3711 4675  
Cooling Degree Days 0 0  
Month to date cooling degree days 0 0  
Year to date cooling degree days 0 0  
Moisture  
Dew Point -7 °F    
Average Humidity 78    
Maximum Humidity 91    
Minimum Humidity 64    
Precipitation  
Precipitation 0.02 in 0.02 in 0.55 in (1953)
Month to date precipitation 0.08 0.36  
Year to date precipitation 0.08 0.36  
Snow  
Snow 0.00 in - - ()
Month to date snowfall 1.8  
Snow Depth 1.00 in    
Sea Level Pressure  
Sea Level Pressure 30.17 in    
Wind  
Wind Speed 7 mph (NNE)    
Max Wind Speed 15 mph    
Max Gust Speed 18 mph    
Visibility 7 miles    
Events Snow    
T = Trace of Precipitation, MM = Missing Value Source: NWS Daily Summary

Daily Weather History Graph

Daily Weather History Graph

Search for Another Location

Airport or City:

Trip Planner

Search our weather history database for the weather conditions in past years. The results will help you decide how hot, cold, wet, or windy it might be!

Date:

Astronomy

Jan. 17, 2012 Rise Set
Actual Time 8:39 AM CST 5:30 PM CST
Civil Twilight 8:03 AM CST 6:05 PM CST
Nautical Twilight 7:25 AM CST 6:44 PM CST
Astronomical Twilight 6:48 AM CST 7:21 PM CST
Moon 2:58 AM CST (1/17) 12:26 PM CST (1/17)
Length of Visible Light 10h 01m
Length of Day
8h 51m
Waning Crescent, 35% of the Moon is Illuminated
Jan 17
Waning Crescent
Jan 23
New
Jan 30
First Quarter
Feb 7
Full
Feb 14
Last Quarter

Hourly Weather History & Observations

Time (CST) Temp. Windchill Dew Point Humidity Pressure Visibility Wind Dir Wind Speed Gust Speed Precip Events Conditions
12:52 AM -5.1 °F -13.6 °F -8.0 °F 87% 30.41 in 10.0 mi NW 3.5 mph - 0.00 in   Mostly Cloudy
1:52 AM -9.0 °F -23.8 °F -13.0 °F 83% 30.42 in 10.0 mi WNW 6.9 mph - N/A   Scattered Clouds
2:52 AM -6.0 °F -18.6 °F -9.9 °F 83% 30.42 in 10.0 mi WNW 5.8 mph - N/A   Overcast
3:52 AM -8.0 °F -21.0 °F -11.0 °F 86% 30.43 in 10.0 mi WNW 5.8 mph - N/A   Mostly Cloudy
4:52 AM -4.0 °F -12.4 °F -8.0 °F 83% 30.42 in 8.0 mi WNW 3.5 mph - 0.00 in Snow Light Snow
5:52 AM -4.0 °F -14.6 °F -8.0 °F 83% 30.42 in 4.0 mi North 4.6 mph - 0.00 in Snow Light Snow
6:52 AM -6.0 °F - -9.0 °F 87% 30.42 in 6.0 mi Calm Calm - 0.00 in Snow Light Snow
7:00 AM -5.8 °F -14.5 °F -9.4 °F 84% 30.24 in 9.0 mi North 3.5 mph - N/A   Overcast
7:20 AM -7.6 °F -20.6 °F -11.2 °F 84% 30.24 in 7.0 mi North 5.8 mph - N/A   Scattered Clouds
7:52 AM -9.0 °F -22.3 °F -11.9 °F 87% 30.45 in 10.0 mi North 5.8 mph - N/A   Clear
8:52 AM -11.0 °F -26.2 °F -15.0 °F 83% 30.45 in 10.0 mi North 6.9 mph - N/A   Clear
9:52 AM -8.0 °F -23.9 °F -13.0 °F 79% 30.43 in 10.0 mi NNE 8.1 mph - N/A   Clear
10:52 AM -6.0 °F -21.5 °F -14.1 °F 68% 30.41 in 10.0 mi NE 8.1 mph - N/A   Clear
11:52 AM -2.9 °F -15.0 °F -11.9 °F 65% 30.38 in 10.0 mi NE 5.8 mph - N/A   Partly Cloudy
12:52 PM -0.9 °F - -9.9 °F 66% 30.34 in 10.0 mi Calm Calm - N/A   Clear
1:52 PM -0.9 °F -8.9 °F -9.9 °F 66% 30.30 in 10.0 mi East 3.5 mph - N/A   Partly Cloudy
2:52 PM -0.0 °F -13.0 °F -9.0 °F 66% 30.25 in 10.0 mi East 6.9 mph - N/A   Overcast
3:41 PM -0.4 °F -14.7 °F -7.6 °F 72% 30.06 in 10.0 mi NE 8.1 mph - N/A   Overcast
3:52 PM -0.0 °F -13.0 °F -8.0 °F 69% 30.23 in 10.0 mi East 6.9 mph - N/A   Overcast
4:52 PM -0.9 °F -17.4 °F -9.0 °F 69% 30.21 in 10.0 mi NE 10.4 mph - N/A   Overcast
5:52 PM -0.0 °F -15.3 °F -7.1 °F 72% 30.18 in 10.0 mi NE 9.2 mph - N/A   Overcast
6:23 PM -0.4 °F -16.7 °F -7.6 °F 72% 29.99 in 10.0 mi NE 10.4 mph - N/A   Overcast
6:52 PM -0.0 °F -17.1 °F -7.1 °F 72% 30.16 in 10.0 mi NNE 11.5 mph - N/A   Overcast
7:52 PM -0.0 °F -18.7 °F -5.1 °F 79% 30.13 in 3.0 mi NNE 13.8 mph - 0.00 in Snow Light Snow
7:57 PM -0.4 °F -19.2 °F -5.8 °F 78% 29.95 in 2.5 mi NNE 13.8 mph - 0.00 in Snow Light Snow
8:14 PM -0.4 °F -19.2 °F -4.0 °F 85% 29.94 in 2.5 mi NNE 13.8 mph - 0.00 in Snow Light Snow
8:25 PM -0.4 °F -18.4 °F -4.0 °F 85% 29.92 in 1.2 mi NNE 12.7 mph - 0.00 in Snow Light Snow
8:52 PM -0.0 °F -16.3 °F -2.9 °F 88% 30.09 in 1.2 mi NE 10.4 mph - 0.01 in Snow Light Snow
9:30 PM 1.4 °F -14.5 °F -0.4 °F 92% 29.88 in 1.5 mi ENE 10.4 mph - 0.01 in Snow Light Snow
9:36 PM 1.4 °F -13.5 °F -0.4 °F 92% 29.87 in 3.0 mi ENE 9.2 mph - 0.01 in Snow Light Snow
9:44 PM 1.4 °F -12.5 °F -0.4 °F 92% 29.87 in 4.0 mi ENE 8.1 mph - 0.01 in Snow Light Snow
9:52 PM 1.9 °F -14.7 °F -2.0 °F 83% 30.03 in 3.0 mi ENE 11.5 mph - 0.01 in Snow Light Snow
10:31 PM 1.4 °F -16.9 °F -2.2 °F 85% 29.82 in 2.5 mi ENE 13.8 mph - 0.00 in Snow Light Snow
10:38 PM 1.4 °F -16.1 °F -2.2 °F 85% 29.82 in 3.0 mi ENE 12.7 mph - 0.00 in Snow Light Snow
10:52 PM 1.0 °F -14.9 °F -4.0 °F 79% 29.98 in 9.0 mi ENE 10.4 mph - 0.00 in   Overcast
11:39 PM -0.4 °F -17.6 °F -5.8 °F 78% 29.79 in 10.0 mi NE 11.5 mph - N/A   Overcast
11:52 PM -0.0 °F -16.3 °F -5.1 °F 79% 29.97 in 10.0 mi NE 10.4 mph - N/A   Overcast